Theta_e
315 315 315 315 316 317 321 323 321 321 320 316 317 318 319 320 321 322 321 320 319 318 316 315 317 318 319 320 320 321 320 321 321 319 320 323 322 321 321 320 319 316 315 318 321 323 324 326 327 329 329 329 331 330 332 335 334 335 334 333 329 325 323 324 325 325 326 326 326 327 328 328 329 330 329 328 325 324 323 323 322 323 325 328 332 333 333 332 332 333 333 334 333 333 332 330 329
315 315 315 315 317 319 324 324 318 319 317 314 316 317 319 320 321 321 320 320 320 317 316 315 316 317 318 319 319 320 321 321 321 321 321 321 321 322 321 320 320 318 315 316 319 320 321 323 325 327 328 328 330 330 332 334 335 335 334 333 330 327 325 325 326 326 325 325 327 329 330 330 331 332 332 332 329 327 326 325 324 324 326 329 332 332 332 332 332 333 333 334 334 334 332 331 330
315 316 314 316 320 321 323 323 317 316 315 313 315 318 318 319 320 320 319 319 318 316 316 316 316 317 318 319 319 320 321 321 320 320 321 320 321 322 322 321 320 320 316 315 316 317 318 320 322 325 326 327 328 330 331 333 334 334 334 332 331 329 327 327 327 327 327 327 329 330 331 332 332 333 333 333 330 329 327 326 326 325 327 329 331 330 329 331 333 334 334 334 334 334 333 331 331
314 316 315 317 322 322 322 322 319 316 314 313 314 318 318 318 319 319 319 318 317 315 316 318 318 318 318 320 320 320 321 321 320 320 321 321 321 322 322 322 321 321 317 315 315 315 317 317 320 322 324 325 326 328 329 331 332 332 332 331 331 329 329 327 327 327 328 330 331 332 332 333 333 333 334 332 331 330 328 327 326 326 327 328 328 326 325 329 333 333 333 333 333 333 333 332 330
314 316 315 317 323 324 322 320 320 316 314 315 314 317 319 318 319 319 320 318 317 316 316 318 319 318 318 319 319 320 321 320 320 320 321 320 321 322 322 322 321 322 319 316 314 315 316 316 319 321 322 324 325 327 328 329 330 330 330 330 330 329 329 328 327 327 329 331 331 332 333 334 334 334 334 332 331 330 329 328 327 326 326 326 325 324 323 325 328 329 330 331 331 331 329 326 323
314 316 316 318 322 322 321 319 318 317 317 317 315 317 319 318 319 319 319 318 317 316 315 317 318 317 317 318 318 320 320 319 320 319 319 319 320 321 322 322 322 322 321 317 315 314 315 316 318 321 322 324 325 325 326 328 330 330 329 329 328 327 328 327 328 328 330 332 332 333 333 334 334 333 332 331 330 331 330 330 329 326 324 324 323 322 321 321 321 322 323 325 326 324 320 316 314
315 318 319 319 320 320 320 318 317 318 319 319 317 318 318 319 319 318 318 318 317 316 316 316 317 317 318 318 318 319 318 317 318 318 318 318 318 320 321 322 322 322 321 318 316 315 314 315 317 319 322 323 323 322 324 326 328 329 328 326 325 326 327 328 329 329 331 332 332 332 333 334 333 331 330 329 328 330 331 330 327 323 321 320 318 317 316 315 315 316 316 316 316 315 313 311 311
316 319 320 319 321 320 319 318 318 319 319 318 318 318 318 319 319 318 318 318 318 317 316 316 316 316 319 318 318 318 318 317 317 317 317 316 317 318 320 321 322 322 321 319 317 315 315 314 315 317 319 321 322 321 322 323 325 325 323 322 323 327 329 330 331 331 331 333 332 332 333 332 331 329 328 325 324 326 328 327 322 317 315 315 313 312 312 312 312 312 312 312 311 311 310 309 308
317 318 320 319 320 319 318 317 318 319 319 318 318 318 319 318 317 317 318 319 318 317 316 316 316 317 318 317 318 319 317 317 317 317 316 316 316 317 319 320 321 322 322 320 318 317 315 314 315 316 316 318 320 321 320 321 323 320 318 320 323 328 328 329 331 331 331 333 332 330 330 330 330 328 325 321 320 320 320 318 315 313 312 311 311 311 310 310 310 310 309 309 308 307 306 305 304
318 317 320 320 318 317 316 317 317 318 318 317 317 317 318 318 317 317 318 319 318 317 317 315 315 317 318 317 318 319 318 317 317 317 317 316 316 317 318 319 320 321 322 321 319 318 316 315 314 315 315 316 318 319 318 319 322 319 318 320 323 324 325 327 328 328 329 330 329 328 327 328 327 326 323 318 316 314 312 312 311 311 310 310 310 309 308 307 307 306 306 305 304 304 304 304 304
319 318 318 319 316 315 315 316 318 318 318 318 318 318 317 317 316 317 317 318 318 317 316 315 316 317 317 318 319 318 318 317 317 317 317 317 316 317 318 318 319 319 321 321 320 319 317 316 314 314 314 314 315 316 316 317 319 318 319 321 322 323 323 323 322 323 326 325 325 327 327 324 322 321 319 314 311 310 309 309 309 309 308 307 307 305 305 304 304 304 303 303 303 303 304 304 305
320 320 318 318 317 315 317 317 317 319 319 319 320 318 316 315 316 318 318 318 318 317 317 316 317 317 317 319 319 319 318 317 317 317 317 317 316 317 317 318 317 317 319 321 321 320 318 316 315 315 314 314 314 315 315 316 316 315 316 318 320 321 321 322 319 319 322 321 320 323 323 319 317 316 313 310 308 309 308 307 307 306 305 304 304 304 303 303 303 303 303 303 304 304 305 305 306
319 322 318 317 318 318 318 317 318 319 320 320 319 317 315 316 318 318 318 318 317 317 318 317 317 317 318 319 319 318 318 317 317 317 317 317 317 316 317 317 316 316 317 320 321 320 319 317 316 315 314 314 314 315 315 315 315 313 313 314 315 316 317 318 315 315 316 316 317 318 318 316 314 312 310 308 308 307 306 305 304 304 304 304 304 303 303 303 303 303 304 304 305 306 306 307 307
318 321 318 318 318 318 318 318 320 319 318 319 317 315 315 316 317 317 317 318 318 318 318 317 316 316 317 319 319 319 318 317 317 317 317 317 317 317 317 317 316 316 316 317 319 320 319 318 317 316 315 315 315 315 314 313 313 313 313 313 313 313 314 314 313 313 312 313 314 314 314 313 311 309 308 307 306 305 304 304 303 303 303 304 303 303 303 303 303 304 304 305 306 307 307 307 307
317 319 319 319 319 318 319 319 319 318 317 318 317 315 315 316 316 315 316 317 318 317 317 317 316 316 318 318 319 319 317 317 317 317 317 317 317 317 317 317 316 316 316 316 317 319 319 318 317 316 315 315 315 315 314 313 313 312 312 312 313 313 313 313 313 313 312 312 312 312 311 310 309 308 307 306 305 304 303 303 303 303 303 303 303 303 303 303 304 305 306 306 306 306 306 306 306
318 319 320 319 319 318 318 319 318 317 318 318 316 315 316 316 316 315 316 316 317 317 316 316 316 316 318 318 318 318 317 317 317 316 316 316 316 317 317 317 317 317 316 315 315 317 318 318 317 317 316 315 315 315 314 313 313 312 312 312 312 313 313 313 313 312 311 311 310 310 309 308 308 307 306 304 304 303 303 303 303 303 303 303 303 303 303 303 305 306 306 306 306 306 306 306 306
318 319 319 318 318 318 318 318 317 317 318 318 316 314 316 316 315 315 315 315 315 316 316 316 316 316 317 317 317 317 317 316 316 316 316 316 316 316 316 316 317 316 316 316 315 315 316 317 317 317 316 315 315 314 314 314 313 313 313 313 312 313 313 312 312 311 310 310 310 309 308 308 307 305 304 303 303 303 303 303 304 304 303 303 303 303 303 304 305 306 306 305 305 305 305 305 305
318 319 319 318 319 319 319 319 318 317 317 318 316 314 316 316 316 315 315 315 315 316 316 316 316 316 317 317 317 317 316 316 316 316 316 316 316 316 316 316 316 316 317 316 316 315 315 316 316 316 316 316 316 315 314 314 314 313 313 313 313 313 313 312 312 311 310 309 309 308 308 307 306 304 303 303 303 304 303 304 304 304 304 304 303 303 304 305 306 306 305 305 304 304 304 304 305
319 319 318 318 320 319 318 318 318 317 316 317 317 314 314 315 315 314 314 316 316 316 317 317 316 316 316 316 316 316 316 316 316 316 316 316 315 315 316 316 316 316 316 316 316 316 315 315 315 315 316 316 315 315 315 314 314 313 313 313 313 312 313 312 312 310 309 309 309 308 307 306 305 303 303 303 303 303 304 304 304 304 304 304 304 304 305 305 306 305 304 304 304 304 304 304 304
320 319 318 319 320 318 316 317 317 316 316 317 317 315 313 314 314 314 314 316 316 316 317 318 317 317 317 316 316 316 316 316 316 316 315 315 315 315 315 315 315 316 316 316 316 316 316 315 315 315 315 315 315 315 315 314 314 314 313 313 313 313 312 312 312 311 309 309 309 308 307 306 304 303 303 303 303 303 304 304 304 304 304 304 304 304 305 305 305 305 304 304 304 304 304 304 304
319 317 318 320 319 318 317 316 316 316 315 315 315 314 314 315 313 313 315 315 316 317 318 318 317 317 317 317 316 316 315 315 315 315 315 315 315 315 315 315 315 315 315 315 316 316 316 316 316 315 315 315 315 315 315 314 314 314 314 313 313 313 312 312 312 311 310 309 309 308 307 305 303 303 303 303 303 303 304 304 304 304 304 304 304 305 305 305 305 304 304 304 303 303 303 303 303
318 317 319 320 317 316 318 317 316 316 314 314 314 314 315 315 313 313 314 315 316 318 318 317 317 316 316 316 316 315 315 315 315 315 315 315 315 315 315 315 315 315 315 315 315 316 316 316 316 316 315 315 315 315 315 315 314 314 314 314 313 313 313 312 312 311 310 309 309 308 307 305 304 303 303 303 303 304 304 304 304 304 304 304 304 305 305 305 305 304 304 304 303 303 303 303 303
317 318 319 319 317 317 318 317 316 316 314 314 315 315 315 314 315 315 314 315 316 316 316 316 316 316 315 315 315 315 315 315 315 315 315 315 315 315 315 315 315 314 314 315 315 315 315 316 316 316 316 315 315 315 315 315 314 314 314 314 314 313 313 312 312 312 311 310 309 308 307 305 304 304 304 304 304 304 304 304 304 304 303 304 304 304 305 305 304 304 304 303 303 303 303 303 303
316 317 318 317 317 317 317 316 316 316 315 315 315 315 315 315 316 315 314 315 315 315 315 315 315 315 315 314 315 314 314 315 314 315 315 314 314 315 315 315 315 314 314 314 314 314 315 315 316 316 316 316 315 315 315 315 314 314 314 314 314 314 313 313 312 312 312 311 309 309 308 306 304 304 304 304 304 304 304 304 304 304 303 303 304 304 304 304 304 304 303 303 303 302 302 302 302
315 316 317 316 315 316 316 315 315 315 314 315 314 315 316 316 316 314 314 315 315 315 315 314 315 314 314 314 314 314 314 314 314 314 314 314 314 314 315 315 315 315 315 315 314 315 314 315 315 316 316 316 316 315 315 315 314 314 314 314 314 314 313 313 313 312 312 311 310 309 308 307 305 304 304 304 304 304 304 304 304 303 303 303 303 304 304 304 304 303 303 303 302 302 302 302 302
316 316 317 316 315 315 314 313 314 314 314 314 313 314 316 315 314 314 314 315 315 314 314 314 314 314 314 314 314 314 314 314 314 314 314 314 314 314 315 315 315 316 315 315 315 315 315 314 315 315 316 316 316 316 315 315 315 314 314 314 314 314 314 313 313 313 312 311 310 310 309 308 306 305 304 304 304 304 304 304 304 303 303 303 303 303 304 304 303 303 303 302 302 302 302 302 302
313 314 314 314 314 314 313 312 313 312 312 312 312 314 315 314 312 314 315 315 314 314 314 314 314 314 314 314 314 313 314 314 314 314 314 314 314 314 315 315 315 315 315 315 315 315 315 314 315 315 315 315 316 316 316 315 315 315 314 314 314 314 314 313 313 313 312 312 311 310 309 308 307 306 305 304 304 303 303 303 303 303 303 303 303 303 303 303 303 303 302 302 302 302 302 302 302
311 311 312 313 314 313 312 312 312 312 311 312 312 312 314 313 311 313 315 314 314 313 313 313 313 313 313 314 314 314 314 314 315 314 314 314 314 314 314 315 314 314 315 315 315 315 315 315 315 315 315 315 315 315 316 316 316 315 315 314 314 314 314 313 313 313 312 312 311 311 310 309 308 307 305 304 303 303 303 303 303 303 303 303 303 303 303 303 303 302 302 302 302 301 301 301 301
311 311 312 313 313 313 314 313 312 311 311 311 311 312 313 313 312 313 314 314 313 312 312 313 313 313 313 314 314 314 315 315 315 315 314 315 314 314 314 314 314 314 314 314 314 314 315 315 314 314 314 315 315 315 315 316 316 315 315 315 315 314 314 314 313 313 313 312 312 311 310 309 308 307 306 304 303 303 302 302 303 303 303 303 302 302 302 302 302 302 302 301 301 301 301 301 301
311 311 311 312 313 313 314 313 311 310 311 310 311 312 313 314 315 315 314 313 312 311 312 312 313 313 313 314 314 314 314 314 314 314 315 314 314 314 314 313 313 314 314 314 314 314 314 314 314 315 314 315 314 315 315 315 315 315 316 315 315 315 314 314 314 313 313 312 312 311 310 309 308 308 306 305 303 302 302 302 302 302 302 302 302 302 302 302 302 302 302 301 301 301 301 301 301
311 311 310 312 313 314 313 311 309 310 310 310 310 311 313 314 316 315 314 313 312 311 312 312 313 313 313 313 313 313 314 314 315 315 314 314 313 313 313 313 313 313 313 313 314 314 314 314 314 314 314 314 314 314 315 315 315 315 315 315 315 315 314 314 314 313 313 312 312 311 310 309 309 308 307 305 303 302 302 302 302 302 302 302 301 301 301 301 302 302 301 301 301 301 301 300 300
311 311 313 313 312 313 314 312 310 311 310 308 310 312 313 314 315 315 314 312 311 311 312 312 313 312 312 312 312 312 314 314 314 314 313 313 313 313 313 313 313 313 313 313 313 313 314 314 314 314 314 314 314 314 314 314 315 315 315 315 315 315 315 314 314 314 313 313 312 311 311 310 309 308 308 307 304 302 302 301 301 302 301 301 301 301 301 301 301 301 301 300 300 300 300 300 300
312 312 314 315 314 313 314 313 313 312 310 308 309 312 313 313 314 315 313 313 311 311 312 312 313 312 312 312 312 312 313 314 313 312 312 312 312 312 313 313 314 313 313 313 313 313 314 314 314 314 314 314 314 314 314 314 314 314 315 315 315 315 315 315 314 314 314 313 313 312 311 310 309 308 308 307 305 303 302 301 301 301 301 301 300 300 300 300 300 300 300 300 300 300 300 300 300
314 313 313 314 313 313 313 314 314 311 309 310 309 310 311 312 314 314 313 313 312 312 312 312 312 313 313 313 312 312 312 312 312 311 311 312 312 313 314 314 313 313 313 313 313 313 313 313 314 314 313 314 314 314 314 314 314 314 314 314 314 315 315 315 314 314 314 314 313 312 311 310 309 308 308 307 306 305 302 301 301 301 301 300 300 300 300 300 300 300 300 300 300 300 300 300 299
316 315 314 314 312 311 312 313 313 311 310 311 310 310 311 311 312 313 312 312 312 312 312 312 312 312 313 313 313 313 312 312 311 311 311 312 313 313 313 313 313 312 313 313 312 312 312 313 313 313 313 313 313 313 313 313 313 313 313 314 314 314 314 314 314 314 314 314 313 313 312 311 310 309 308 307 307 306 304 302 301 300 300 300 300 300 299 299 299 299 299 299 299 299 299 299 299
315 314 313 313 313 312 312 312 313 311 310 311 311 311 312 312 312 312 313 313 312 313 312 313 312 312 313 313 313 313 313 312 311 312 312 313 313 312 312 312 312 312 312 312 312 312 312 312 312 312 313 312 313 312 312 313 313 313 313 313 313 314 314 314 314 314 314 314 314 313 313 312 311 310 308 307 307 307 306 303 301 300 300 300 300 299 299 299 299 299 299 299 299 299 299 299 299
312 312 313 313 313 313 313 313 312 311 309 310 311 311 312 312 312 312 313 313 313 313 313 313 313 313 313 313 314 314 313 311 312 313 313 312 312 312 312 312 312 312 312 312 312 312 312 311 312 312 312 312 312 312 312 312 312 312 313 313 313 313 313 313 314 314 314 314 314 314 313 313 312 311 309 308 307 306 306 305 302 300 300 300 300 299 299 299 299 299 298 298 298 298 298 298 299
311 312 312 313 313 313 313 313 312 310 309 311 311 311 312 312 312 312 313 312 312 313 314 313 313 313 314 314 314 313 312 312 313 313 312 312 312 312 312 312 312 311 311 311 311 311 311 311 311 311 311 311 311 311 311 311 311 312 312 312 313 313 313 313 313 313 314 313 314 314 313 313 313 312 310 308 306 306 306 305 304 302 300 300 299 299 299 299 299 299 298 298 298 298 298 298 298
312 312 312 313 313 313 313 312 311 309 308 311 311 311 311 311 311 312 313 313 313 313 313 313 313 314 314 314 313 311 312 313 313 312 312 312 313 312 312 312 311 312 311 311 311 311 311 311 311 310 310 310 310 310 310 310 310 310 311 311 311 312 312 312 312 313 313 313 313 313 313 313 313 312 311 309 307 306 305 305 305 304 301 300 299 299 299 299 299 298 298 298 298 298 298 298 298
311 312 313 313 313 313 313 311 309 308 308 310 310 310 311 312 313 313 313 313 313 313 313 313 314 314 313 312 311 311 313 312 311 312 313 313 313 313 312 312 312 312 312 312 312 312 311 311 311 311 310 310 309 309 309 309 309 309 309 310 310 310 310 311 311 312 312 312 312 313 313 313 313 312 311 310 308 306 305 305 305 305 303 301 300 299 299 299 299 299 298 298 298 297 298 298 298
313 313 313 313 314 313 313 312 310 310 310 309 309 312 314 315 315 315 314 312 312 313 313 314 314 313 312 311 311 312 312 311 311 312 312 312 312 312 312 312 312 313 313 313 313 313 312 312 311 311 311 310 310 309 309 308 308 309 309 309 309 309 309 310 310 310 311 311 312 312 312 312 312 312 312 311 309 307 306 305 305 305 305 303 301 299 299 299 299 299 299 298 298 298 298 298 298
314 314 313 312 312 312 312 313 311 311 313 310 310 314 316 315 315 315 315 314 315 315 314 314 314 312 311 311 311 311 311 311 311 311 311 311 311 312 312 312 313 313 313 313 313 313 313 312 312 311 310 310 310 310 309 309 308 308 308 308 308 308 309 309 310 310 310 311 311 311 312 312 312 312 312 311 310 309 307 305 304 304 304 304 303 300 299 299 298 298 298 298 298 298 298 298 298
313 314 313 312 311 312 312 312 312 312 314 310 309 313 315 315 315 315 315 315 315 317 316 315 314 312 311 311 310 310 310 310 310 309 309 310 310 311 312 313 313 313 313 313 313 313 313 313 313 312 311 310 310 310 309 309 309 308 308 308 308 308 309 309 309 309 309 310 310 310 311 311 311 311 311 311 311 310 308 306 304 303 303 304 304 302 300 300 299 298 298 298 298 298 297 298 298
314 315 314 312 311 312 312 311 311 312 312 310 310 311 313 315 315 314 314 315 315 317 317 316 314 311 310 310 309 310 310 309 309 308 308 308 309 310 311 312 313 313 313 313 313 313 313 313 313 312 312 311 310 309 309 309 308 308 308 308 308 308 308 308 308 308 308 308 309 309 309 309 310 310 310 310 310 310 309 307 305 303 302 303 303 302 302 301 299 299 298 298 298 298 298 298 298
313 311 309 310 310 311 311 311 311 310 310 312 312 311 314 316 315 313 313 314 316 317 316 315 313 311 310 309 308 308 308 307 307 307 306 306 307 308 310 312 313 313 313 313 313 313 312 312 312 312 312 312 310 309 309 308 308 307 307 307 307 307 307 307 307 308 308 308 308 308 308 308 308 309 309 309 309 309 308 307 305 303 301 301 301 302 302 301 300 299 298 298 298 297 298 298 297
310 308 308 309 309 309 309 310 311 310 311 314 313 312 315 318 316 314 313 314 316 317 315 312 310 310 309 309 308 306 306 306 306 305 305 306 306 308 310 311 312 312 312 312 312 313 312 312 312 311 311 311 311 310 309 308 307 307 306 306 306 306 306 306 306 306 307 307 307 307 307 307 307 308 308 308 308 308 308 307 306 304 302 301 300 301 301 301 300 299 298 298 298 298 298 298 297
307 309 311 311 310 309 309 309 310 311 315 316 314 313 315 317 317 316 315 314 314 314 314 312 309 308 308 307 306 305 304 305 304 304 305 305 306 308 309 310 310 311 311 312 312 312 312 312 312 311 310 310 310 310 310 308 307 306 305 305 305 305 305 305 305 305 305 306 306 306 306 306 306 306 307 307 307 307 307 307 306 305 303 301 301 300 300 301 300 300 299 298 297 297 297 297 297
307 310 310 311 312 310 310 310 310 314 318 316 312 313 315 316 317 315 314 314 312 312 313 312 309 307 306 305 304 303 302 302 303 304 305 305 306 307 308 308 308 309 309 310 311 311 311 312 311 311 310 309 309 309 309 309 308 306 305 304 304 304 304 304 304 304 304 304 305 305 305 305 305 306 306 306 306 307 306 306 305 305 304 303 301 300 299 300 300 300 299 299 298 297 297 297 297
308 309 310 312 314 315 316 315 313 316 317 312 309 312 313 315 316 314 314 315 312 310 310 310 308 306 305 303 302 301 301 302 303 303 304 304 305 305 305 306 307 307 307 308 309 310 310 310 310 309 309 309 309 309 309 308 308 307 306 305 303 302 302 303 303 303 303 303 303 303 304 304 304 305 305 305 305 306 306 305 305 305 305 304 302 301 299 299 299 299 299 299 298 298 297 297 297
309 310 311 314 317 319 321 319 316 318 317 309 307 311 313 314 315 314 315 315 311 308 308 307 306 305 303 302 300 300 301 301 301 302 303 303 303 303 303 304 305 305 306 306 307 307 308 309 309 308 308 309 309 309 308 308 307 307 306 305 304 303 302 302 302 302 302 303 303 303 303 303 303 304 304 304 304 304 304 304 305 304 304 303 302 301 300 299 299 299 299 299 299 298 298 297 297
309 311 312 314 317 321 322 321 320 321 320 312 308 312 315 316 315 312 312 312 308 306 306 304 304 303 302 300 299 299 299 300 300 300 301 301 302 302 302 302 303 303 304 304 305 305 306 306 307 307 308 309 309 309 308 307 307 306 306 305 304 303 303 302 302 301 301 302 302 302 302 302 303 303 303 303 303 304 303 303 303 304 303 303 303 302 300 300 299 298 298 298 298 298 298 297 297
311 311 311 312 317 321 320 319 320 319 319 316 313 314 316 315 314 312 312 310 307 306 305 303 303 301 300 299 297 297 297 299 299 299 299 300 300 300 301 301 301 302 302 302 302 302 303 304 305 306 306 307 308 308 308 307 306 306 305 305 304 304 304 303 303 302 301 301 301 301 302 302 302 302 302 303 303 303 303 303 303 303 303 303 303 302 301 300 299 298 298 298 298 298 298 298 297
311 309 312 313 315 319 317 317 319 317 317 318 317 316 316 316 316 314 312 310 307 305 303 302 301 300 299 298 296 295 296 297 297 298 298 298 298 299 299 299 299 299 300 299 300 300 300 301 301 303 304 306 307 307 307 307 306 306 305 305 305 305 305 305 304 303 302 301 300 300 301 301 301 301 302 302 302 302 302 302 302 302 302 302 302 302 302 301 300 299 298 298 298 299 299 298 298
311 311 314 314 313 314 313 314 317 317 317 319 318 318 318 319 318 313 312 311 309 305 302 300 299 298 298 296 295 294 295 296 297 297 297 298 298 298 298 298 298 298 298 297 297 298 298 299 300 302 302 303 303 304 304 305 305 305 305 304 304 304 304 304 304 303 303 302 302 301 300 300 301 301 300 300 301 301 301 301 302 302 302 302 302 302 302 302 301 301 300 299 299 299 299 299 298
310 311 312 313 313 314 313 314 315 317 319 319 318 318 318 318 318 314 313 312 309 305 301 299 297 297 296 295 294 294 295 296 296 296 296 296 296 297 297 298 298 298 298 298 298 298 299 300 300 301 301 300 300 301 302 302 303 303 303 303 303 302 302 303 304 303 303 303 303 303 301 301 300 300 300 300 299 299 300 300 300 301 301 301 302 302 302 302 301 301 301 301 300 300 300 299 299
308 308 309 310 312 314 314 313 315 317 319 319 320 320 319 318 317 315 312 309 307 304 300 297 296 296 295 294 294 293 293 293 293 293 293 294 295 295 295 295 296 296 297 297 298 298 299 299 299 299 299 299 299 299 299 300 300 301 302 302 303 302 302 303 303 303 302 302 303 303 303 302 302 301 300 300 299 299 299 299 299 300 300 300 301 301 301 301 301 301 301 301 301 301 301 300 300
309 309 310 309 310 313 313 313 314 316 317 319 320 320 320 317 312 310 308 305 303 302 299 297 297 296 295 294 293 293 293 293 293 293 294 294 294 294 294 294 294 295 295 296 296 296 297 297 297 297 297 297 297 297 297 297 298 299 299 300 301 302 302 302 302 302 302 302 302 302 303 303 303 303 302 300 299 299 299 299 299 298 299 299 299 300 300 300 300 301 301 301 301 301 301 301 301
312 312 311 312 313 313 313 314 315 315 315 317 317 318 320 315 308 305 303 301 301 299 298 298 297 296 295 294 293 293 292 293 293 294 294 294 294 294 294 295 295 295 295 295 295 295 296 296 296 296 295 295 295 295 295 295 296 296 297 297 299 300 301 301 302 302 302 302 302 301 301 302 302 303 303 302 301 300 299 298 298 298 298 298 298 298 299 299 299 300 300 300 300 300 300 300 300
Wind_Speed
8 7 6 5 4 4 4 6 3 1 2 4 2 3 1 0 4 4 3 2 2 0 3 5 4 8 7 2 4 7 7 6 5 4 3 3 4 2 3 6 9 10 15 21 22 23 23 23 21 21 21 21 21 20 19 18 17 17 17 16 15 13 13 12 12 11 10 9 8 8 7 7 8 8 8 9 9 9 8 8 7 7 6 7 7 6 7 8 7 7 7 7 7 6 4 3 4
7 7 6 5 3 3 2 4 4 1 3 4 1 1 2 1 3 2 4 6 5 4 5 5 7 11 11 7 7 9 8 10 9 9 9 9 8 4 4 6 8 10 14 20 22 22 23 23 23 22 21 21 21 21 20 20 19 18 18 17 16 14 13 12 11 10 9 9 8 8 8 8 9 9 9 9 10 10 9 8 8 8 8 8 8 7 8 9 8 7 7 8 8 7 6 5 4
6 6 5 4 2 2 1 1 3 3 3 4 2 1 1 2 1 3 5 6 7 8 7 4 7 10 11 10 8 7 6 8 12 12 13 13 10 7 6 7 9 10 13 19 21 22 23 23 23 23 22 21 21 21 21 21 20 20 19 18 16 15 14 12 12 11 9 9 8 9 9 10 10 10 11 11 11 11 10 9 9 8 8 8 9 9 9 8 8 7 6 7 8 8 7 7 6
5 5 4 2 2 1 1 2 2 3 4 3 2 2 1 3 3 4 5 6 9 10 5 3 5 7 9 8 5 6 8 9 10 9 9 10 9 8 7 9 10 11 13 17 20 21 22 22 22 23 22 22 22 22 22 22 21 21 20 18 17 15 14 12 12 11 10 10 10 11 11 11 12 13 13 13 12 11 11 10 9 9 9 9 10 10 9 8 8 8 8 8 8 8 8 8 9
4 3 3 3 3 1 0 2 1 3 3 2 3 1 1 2 4 6 7 7 11 9 5 4 3 3 6 9 5 4 7 7 6 6 7 8 7 7 7 9 11 12 13 16 19 21 21 21 22 23 23 22 22 22 22 22 21 20 19 18 17 15 14 12 12 12 12 12 12 12 13 13 15 15 14 14 13 12 12 11 10 10 10 11 12 11 10 10 10 10 10 10 10 9 10 11 12
2 1 2 3 2 1 1 2 2 4 2 1 6 5 2 3 5 9 10 9 9 7 6 6 4 4 5 8 10 9 10 9 9 10 9 9 8 8 8 9 12 14 13 16 19 20 21 21 22 22 23 22 22 22 21 21 20 20 19 18 17 15 14 13 12 13 13 13 14 14 14 15 16 16 14 14 15 14 14 13 12 12 12 13 13 13 12 12 12 13 13 13 13 13 14 14 15
3 2 2 3 2 1 3 4 4 5 1 1 6 7 8 6 5 9 10 8 3 4 6 8 5 5 5 6 9 11 12 11 12 13 12 11 9 9 8 9 12 14 15 16 18 20 21 21 22 22 23 23 22 21 20 20 20 20 19 18 17 15 14 13 13 14 15 15 15 15 16 17 17 17 15 15 16 15 15 14 15 15 14 14 14 14 14 13 13 14 14 14 14 15 15 14 14
5 3 2 3 1 1 3 4 4 4 1 2 6 8 12 11 7 9 9 5 2 2 5 9 5 3 5 4 7 10 13 12 13 13 13 12 11 10 9 10 12 15 16 16 17 20 20 21 22 22 23 23 22 21 20 20 20 20 19 18 16 16 15 14 15 15 16 16 17 18 18 18 18 18 17 16 16 16 16 17 17 16 14 14 14 13 13 13 12 13 13 13 13 13 13 12 11
5 4 2 2 1 1 3 4 4 3 3 4 7 11 13 12 8 8 8 5 5 4 5 8 7 4 3 4 9 12 14 12 11 11 11 11 10 10 10 10 12 14 16 16 17 18 20 21 22 22 23 23 22 21 21 20 20 19 18 18 17 18 18 17 17 17 19 18 19 20 20 20 19 18 17 16 17 17 16 17 16 15 14 13 13 12 11 10 10 10 11 11 11 10 9 8 6
4 3 2 1 1 2 3 3 2 2 4 4 7 13 13 10 6 6 7 6 5 3 5 7 9 11 6 7 11 10 10 10 10 10 9 9 9 10 10 10 12 14 16 17 17 18 20 21 22 23 23 23 23 22 21 20 20 19 18 18 18 19 20 20 21 21 21 21 21 20 20 20 19 18 17 16 16 15 14 13 13 13 12 11 11 10 9 8 8 8 8 8 7 6 5 5 4
3 2 2 2 2 3 3 3 4 3 3 4 8 11 10 7 5 5 6 6 5 4 5 6 7 11 9 8 10 9 11 11 10 10 10 9 9 9 10 11 13 15 17 18 18 18 20 21 22 23 23 23 23 23 22 20 20 20 19 19 19 20 20 20 22 22 21 22 22 21 20 19 19 17 15 13 12 11 11 11 11 11 10 10 9 8 7 6 6 6 6 5 5 5 5 4 4
2 2 2 2 2 3 3 4 5 6 6 5 4 3 3 3 4 3 4 5 4 5 7 9 5 4 6 5 8 12 14 10 7 9 10 10 9 10 11 12 13 15 17 18 19 19 20 21 22 23 23 23 23 23 22 21 21 20 19 19 20 20 20 20 21 21 21 21 21 21 20 18 17 15 12 10 10 10 10 10 10 10 9 9 8 6 6 6 6 6 6 6 5 5 4 4 4
3 2 3 2 1 2 1 4 4 5 6 3 1 3 2 3 4 3 2 4 3 5 6 10 9 4 6 8 12 16 12 7 7 9 10 10 10 10 12 13 14 14 16 18 20 21 21 22 23 23 24 24 24 24 23 22 21 20 19 19 20 20 20 21 20 21 21 21 21 21 19 18 16 13 11 10 10 10 10 10 10 9 9 8 7 7 7 7 7 7 6 6 5 4 4 4 3
4 3 3 1 0 2 2 4 3 3 4 1 1 3 3 3 4 3 2 5 4 5 5 7 9 6 7 9 9 8 6 10 13 14 13 11 10 11 12 14 15 16 16 18 21 22 22 23 24 24 25 25 25 25 24 23 22 21 20 20 20 20 20 20 20 20 20 20 19 19 19 17 15 13 12 11 11 11 10 10 10 10 9 9 8 8 8 8 7 7 6 6 5 4 4 3 3
6 5 2 1 2 2 3 3 1 3 3 1 2 4 4 5 4 4 4 7 6 7 9 7 8 6 4 6 6 6 11 18 19 19 16 13 12 12 13 15 17 18 18 19 21 22 24 24 25 25 26 26 27 26 25 24 24 22 22 21 21 21 21 21 21 20 19 18 18 18 18 17 15 13 13 12 12 12 11 11 11 10 10 9 9 9 8 8 8 7 7 6 6 5 4 4 3
7 6 1 2 2 2 3 3 1 3 3 0 3 4 4 6 4 4 6 8 10 13 14 10 11 11 10 13 16 18 21 23 22 22 20 18 16 15 15 16 18 20 20 20 21 23 24 25 26 26 27 28 28 28 27 26 25 24 24 23 23 22 22 22 22 21 20 19 18 18 18 17 15 14 14 14 14 13 12 12 11 10 10 10 9 9 9 9 8 8 7 7 6 5 5 4 3
8 5 2 3 3 3 3 4 4 1 2 2 4 6 5 6 4 6 9 10 14 17 19 17 17 20 23 24 24 24 25 25 24 24 23 23 21 19 18 18 20 21 22 22 22 23 25 26 26 27 27 28 29 29 28 28 27 26 25 25 25 24 23 23 23 22 21 20 19 19 18 17 15 15 15 15 15 14 13 12 12 11 10 10 10 9 9 9 8 8 7 7 6 5 4 4 3
6 3 3 4 4 4 4 6 6 0 4 4 3 6 7 7 5 7 9 11 14 18 24 25 24 26 28 28 26 25 24 23 24 24 24 25 24 24 22 21 22 22 22 23 24 25 25 26 27 27 28 28 29 30 30 29 28 27 27 27 26 26 25 24 24 23 22 21 20 19 18 17 17 17 17 16 16 15 14 14 13 12 11 11 10 10 9 9 8 8 7 7 6 5 4 3 3
5 2 3 5 4 2 4 7 6 4 7 7 5 5 7 8 6 6 8 11 10 14 22 21 22 28 28 26 22 20 21 22 23 25 25 25 25 25 25 25 24 24 24 24 24 26 26 27 27 27 28 29 30 31 31 30 30 29 29 29 28 28 27 25 25 24 22 21 20 20 19 19 18 18 18 17 17 16 16 15 14 13 12 12 11 11 10 10 9 9 8 7 6 5 4 4 3
5 4 5 7 6 3 6 10 9 10 11 9 9 7 8 11 9 6 8 11 11 13 20 17 17 23 25 22 21 20 20 23 25 26 27 27 26 26 26 26 26 26 24 24 25 27 27 28 28 28 28 29 31 31 31 32 31 31 31 30 30 29 28 27 26 25 23 22 21 20 20 20 18 19 19 18 18 18 18 17 16 15 14 13 13 12 12 11 10 10 9 8 7 6 5 5 4
4 6 7 5 3 4 8 13 14 14 14 11 9 9 10 12 10 9 8 8 10 15 21 22 21 25 25 22 23 24 24 26 27 28 29 29 27 26 26 26 25 25 25 27 27 27 28 29 29 29 29 30 31 32 32 32 33 33 33 32 31 31 30 29 28 26 25 23 22 22 22 20 20 20 20 21 21 21 20 19 18 16 16 15 14 14 13 12 12 12 11 9 8 7 6 6 5
4 8 13 8 3 5 8 10 13 13 13 11 7 8 11 11 11 13 11 9 14 20 24 26 27 30 31 27 27 29 28 28 28 28 28 28 28 26 25 25 25 25 26 28 27 27 28 30 30 30 31 32 32 32 33 33 34 34 34 33 33 32 32 30 29 28 26 25 24 24 23 22 22 23 22 23 23 23 21 20 19 17 16 16 15 15 15 15 15 14 12 11 9 8 7 6 6
8 8 12 12 9 10 10 7 10 11 9 8 8 11 13 11 13 15 16 20 27 32 33 35 34 34 36 34 32 32 30 27 26 25 25 25 26 24 23 23 23 24 25 26 26 27 29 30 31 31 32 33 33 33 33 35 35 35 35 35 34 34 33 32 31 29 28 27 26 25 24 25 25 25 25 25 25 24 23 21 20 18 18 17 17 17 17 17 16 15 13 12 11 9 8 7 6
9 8 8 10 12 14 15 10 12 14 12 13 14 16 18 15 13 12 16 26 37 40 40 40 40 37 36 35 32 31 28 26 25 23 23 22 22 22 22 22 23 24 25 26 26 27 29 29 29 32 33 34 34 34 34 35 36 36 36 36 35 35 35 34 33 32 30 29 28 27 26 27 27 27 27 26 26 26 24 22 21 20 20 19 19 19 18 18 17 16 15 13 12 11 9 8 7
10 12 8 7 10 14 15 13 15 17 18 20 17 18 26 23 14 15 24 35 43 42 41 39 36 34 32 31 29 27 27 26 25 23 23 21 20 20 21 22 23 24 24 24 26 28 29 28 29 32 34 34 34 35 36 36 36 37 38 37 36 36 36 35 35 34 32 31 30 29 28 28 28 28 28 27 27 27 25 24 22 22 22 21 20 20 19 19 19 18 17 15 14 12 11 9 8
8 12 9 8 11 13 14 15 15 16 19 18 13 18 28 22 13 21 32 37 36 31 30 29 28 29 28 28 28 27 28 27 26 25 24 22 21 21 21 22 24 24 23 23 25 26 27 28 30 32 33 33 34 36 37 37 37 38 39 38 37 37 37 37 37 35 34 33 32 31 30 30 30 30 29 29 28 28 27 25 24 23 23 22 21 21 20 20 20 19 18 17 15 14 12 11 9
2 6 9 13 16 16 15 16 16 16 20 19 15 18 25 15 5 17 22 18 19 20 22 25 25 28 28 28 29 29 29 27 25 25 26 25 24 23 21 22 25 24 23 23 23 24 26 28 30 31 33 34 35 36 37 37 38 39 39 38 38 38 38 38 38 37 36 36 34 33 32 32 31 31 31 30 30 30 29 27 26 25 24 23 22 22 21 21 21 20 19 18 16 15 14 12 10
5 6 10 14 15 18 17 17 18 15 14 16 16 16 22 12 5 21 27 17 19 22 24 28 28 29 29 29 28 27 28 26 25 26 28 28 27 26 25 26 27 26 27 25 23 23 25 27 29 31 32 34 36 36 37 38 39 40 40 39 39 39 38 39 39 38 38 37 36 35 34 34 33 33 32 31 31 31 30 29 28 26 25 25 24 23 23 22 22 22 21 19 18 17 15 13 11
6 6 9 13 12 18 17 15 15 12 7 8 11 10 15 11 14 31 34 24 23 21 24 28 28 29 28 26 26 26 29 30 30 32 32 32 32 31 31 32 31 31 30 27 26 26 25 26 28 30 31 34 36 37 37 38 40 40 41 40 40 39 40 40 40 39 39 38 38 36 36 36 35 34 34 33 32 32 32 30 29 28 27 26 25 24 24 24 23 23 22 21 20 18 16 14 12
6 3 4 9 10 12 9 7 6 6 6 8 10 6 10 11 18 27 23 20 20 17 21 27 27 28 27 26 28 31 35 36 37 38 37 36 36 35 36 36 35 35 33 30 30 29 27 26 27 29 31 33 34 37 38 39 40 41 41 41 41 41 41 40 40 41 40 40 39 38 38 38 37 36 35 34 34 34 33 32 31 30 29 28 27 26 25 25 25 24 23 22 21 19 18 16 14
5 2 2 5 7 6 1 5 4 4 5 12 11 8 10 10 16 18 14 16 17 15 20 22 23 24 26 31 34 38 40 40 39 39 38 39 39 38 38 38 36 35 34 32 31 31 30 28 27 28 30 32 34 36 37 38 39 41 41 41 42 41 41 41 41 42 42 41 40 40 40 39 39 38 36 35 35 35 35 34 33 32 31 29 28 28 27 27 26 25 24 23 22 21 19 17 15
3 4 5 4 5 8 6 3 7 8 4 12 11 7 8 11 15 14 13 15 13 14 20 22 23 24 28 32 35 41 42 41 41 39 38 38 37 36 35 34 31 30 30 28 28 29 31 31 29 28 30 32 33 34 35 37 39 40 41 41 42 41 42 42 42 42 42 42 42 42 42 41 40 39 38 37 36 37 36 36 35 34 32 31 31 30 29 28 27 26 25 24 23 22 21 19 17
4 5 8 6 7 7 7 8 8 9 3 7 12 9 7 8 12 14 16 19 17 16 23 29 30 28 29 31 32 39 42 43 41 36 36 35 32 30 28 26 24 23 24 22 22 24 27 29 30 29 29 31 32 33 34 37 39 40 41 41 42 42 43 43 43 43 44 44 44 44 43 42 42 41 40 38 38 38 37 37 36 35 34 33 33 32 31 30 28 27 26 25 25 23 22 20 18
5 6 7 7 9 8 6 9 5 4 6 8 12 12 12 13 15 21 22 24 25 24 29 33 31 30 29 28 32 36 36 37 34 30 32 31 27 24 21 20 18 17 18 18 18 20 22 25 28 28 28 29 31 33 34 36 38 40 41 42 43 43 44 44 44 45 45 45 45 45 44 44 43 43 42 41 40 39 38 38 38 37 36 36 35 34 33 31 29 28 27 27 27 25 24 22 20
8 5 6 5 7 9 9 10 5 2 7 9 9 13 16 16 17 23 28 27 25 27 31 31 29 32 29 27 34 34 24 23 24 24 27 26 23 20 18 16 14 13 14 14 14 17 19 22 24 26 27 28 29 32 33 35 37 40 42 43 43 44 45 45 46 46 46 46 46 46 45 45 45 45 44 43 42 41 40 39 39 39 38 38 37 36 35 33 31 30 30 29 28 27 26 24 22
7 5 6 8 8 9 11 13 9 6 11 12 13 18 17 15 15 16 23 25 24 29 33 30 27 27 26 29 33 25 14 15 19 23 24 21 19 16 13 12 11 10 10 11 12 14 16 18 21 23 24 25 28 31 34 35 37 39 41 42 44 45 46 46 47 47 47 47 47 46 46 46 46 46 46 45 44 43 42 41 41 41 40 40 39 38 37 35 33 32 32 31 30 29 27 25 24
5 5 8 10 10 11 12 14 9 2 7 11 13 19 19 17 16 14 20 25 25 30 30 26 23 23 26 30 24 11 10 16 19 20 16 12 10 9 8 8 7 6 6 8 10 11 12 15 18 19 20 22 26 30 32 35 37 39 40 41 43 45 46 47 47 48 48 48 48 47 48 47 47 48 47 47 46 45 44 43 43 43 42 42 41 40 38 36 35 34 33 32 31 30 29 28 26
9 8 10 10 9 13 12 13 11 1 4 9 10 18 18 16 18 18 22 23 22 26 25 22 24 26 26 20 10 7 13 17 14 11 9 10 12 13 12 11 10 9 6 5 6 7 10 13 15 17 19 21 24 27 29 32 35 37 39 40 42 43 45 47 47 48 48 49 49 49 49 49 49 49 49 49 48 47 47 46 44 44 44 43 42 41 40 38 37 36 35 34 33 32 31 30 28
11 8 8 9 7 11 11 9 8 1 2 8 10 16 16 16 21 21 20 19 21 25 23 24 29 28 19 8 8 12 15 13 10 12 15 19 20 20 19 18 18 17 16 14 12 9 7 9 13 15 17 19 20 23 25 27 30 33 36 37 39 41 43 45 47 48 49 50 51 51 51 51 51 50 50 50 50 50 49 47 46 45 44 44 44 43 42 41 39 39 37 36 35 34 33 31 30
9 8 8 9 6 8 8 4 1 1 5 9 13 15 13 14 17 12 11 12 17 22 23 29 29 18 9 8 11 12 11 9 12 18 22 23 23 22 22 23 23 23 23 22 21 18 13 8 8 12 15 16 17 20 21 23 27 29 31 34 36 38 41 43 44 46 48 49 51 51 52 52 52 52 51 51 51 51 50 49 48 47 46 45 45 45 44 44 42 41 40 39 38 37 35 33 32
9 9 8 11 11 11 12 6 4 6 7 5 10 13 7 5 3 2 2 4 9 19 23 20 10 8 8 7 8 7 8 12 17 21 23 23 22 22 23 23 24 25 25 24 24 23 20 15 10 6 10 13 15 16 17 20 23 26 28 31 34 37 39 41 44 46 47 48 49 51 52 52 52 52 52 52 52 52 52 51 50 49 48 47 47 47 46 45 44 44 42 41 40 39 38 36 34
8 7 10 16 15 14 15 10 7 7 5 1 7 10 3 1 1 5 7 4 9 16 14 4 10 14 10 9 10 11 13 17 20 21 21 22 22 23 23 23 24 24 23 23 22 22 21 19 16 11 7 8 11 13 14 17 20 22 25 28 31 34 36 38 41 42 43 44 46 48 49 50 51 51 52 53 53 53 53 53 52 51 50 49 48 48 48 47 46 45 44 42 42 41 40 38 37
8 4 8 13 13 12 12 9 5 5 4 1 3 6 6 4 4 6 8 7 14 15 7 2 10 11 9 11 14 17 19 19 20 21 21 22 22 22 22 22 23 22 22 22 21 22 21 20 18 15 12 8 6 9 11 14 17 19 22 24 27 29 32 34 36 37 38 40 41 43 45 46 47 49 51 52 53 54 54 54 54 53 52 51 50 49 49 48 47 46 44 44 43 43 42 41 40
6 1 2 6 7 8 6 5 5 4 5 2 3 5 8 7 3 4 6 9 15 13 6 4 11 13 11 14 17 19 20 20 20 21 20 22 21 20 21 22 22 21 21 22 22 22 22 21 19 17 15 12 8 7 8 10 14 17 20 22 24 26 28 30 32 33 34 37 38 39 41 42 43 45 48 50 52 53 54 55 55 55 54 53 52 51 50 49 48 47 45 45 45 45 45 43 42
2 4 2 1 1 3 3 4 5 3 5 4 5 5 6 7 2 2 4 8 11 7 7 9 14 13 9 15 19 19 20 20 20 20 20 21 21 21 22 21 21 21 22 23 23 23 23 23 21 20 17 14 11 8 7 7 10 14 17 21 23 25 26 28 30 31 32 34 35 36 38 40 40 42 43 46 48 50 52 54 55 56 56 55 54 52 51 50 49 48 47 47 47 47 46 45 44
1 4 3 3 2 1 2 3 3 2 6 5 6 8 6 8 1 3 2 3 5 5 8 12 15 14 11 15 20 21 21 20 20 20 21 22 22 23 21 20 20 21 21 21 22 23 24 25 25 24 21 18 15 11 9 8 9 11 15 18 21 23 26 27 29 30 31 33 33 34 36 38 38 39 39 41 44 45 48 51 54 56 56 56 56 54 52 51 50 49 48 48 48 48 48 47 46
2 3 0 0 2 1 1 2 1 3 7 4 10 13 8 6 1 3 0 1 2 3 6 11 13 14 16 18 19 20 21 22 22 22 24 25 25 24 22 22 22 20 19 19 21 23 24 26 27 26 25 23 20 16 12 10 9 10 13 16 19 21 24 27 28 30 32 33 33 33 35 36 37 37 37 38 40 41 43 47 51 54 56 57 57 55 54 53 51 50 49 48 48 48 48 48 48
1 1 2 3 2 1 2 2 1 5 6 1 5 7 9 8 2 2 3 3 2 2 3 7 8 11 16 18 20 22 24 25 25 26 27 27 27 26 25 25 24 22 22 22 22 23 24 25 26 26 25 25 25 22 18 14 11 10 11 13 16 19 22 25 26 28 30 32 32 33 35 35 36 36 36 36 36 37 40 43 47 50 54 56 57 57 56 54 53 52 51 50 49 49 49 49 49
3 2 2 4 3 2 3 2 2 5 4 2 2 1 5 9 5 5 10 6 4 3 4 7 10 13 17 18 20 25 27 27 28 28 28 29 29 29 28 27 26 26 26 25 24 23 23 24 24 24 25 25 26 26 23 19 15 13 12 12 14 17 20 22 24 26 28 30 31 32 34 34 35 35 35 35 34 34 37 40 42 45 49 53 55 56 56 55 54 54 53 52 51 49 50 50 51
6 4 4 3 4 4 5 3 3 5 2 3 2 0 4 7 4 8 12 4 10 11 11 16 19 17 17 17 19 25 29 29 30 30 29 29 29 29 28 28 27 27 26 25 25 24 23 23 22 23 23 24 25 26 26 24 20 16 13 13 13 16 18 20 22 24 25 27 29 30 32 33 33 34 34 33 32 33 34 36 38 41 44 48 52 54 55 55 55 55 54 53 52 51 50 51 51
5 2 1 3 4 4 5 5 5 8 5 0 2 2 4 3 1 1 1 10 16 17 19 22 21 16 16 18 21 26 29 29 29 30 30 29 27 27 27 27 26 26 26 25 25 25 24 23 23 23 23 24 24 24 25 25 23 20 16 13 13 14 16 18 21 22 23 25 26 28 29 30 31 32 32 32 32 32 33 33 34 36 38 42 46 50 53 54 55 55 55 54 53 52 51 51 51
1 1 1 3 3 3 4 7 6 6 7 4 4 3 4 2 3 4 3 13 17 18 20 19 17 17 20 23 24 26 28 29 29 28 28 27 26 26 25 26 26 25 25 25 26 25 25 24 23 23 23 24 24 23 23 23 23 22 20 17 14 13 14 16 18 21 22 23 23 24 26 28 29 30 31 31 31 31 32 32 33 33 34 37 40 44 48 51 54 55 55 56 55 54 53 52 52
2 2 4 2 2 3 4 6 2 1 6 6 4 6 7 5 6 3 7 12 14 14 15 16 16 17 20 20 20 23 26 27 27 27 26 26 25 25 25 25 25 25 25 25 25 25 25 25 24 24 24 24 23 22 22 21 21 22 22 20 18 16 15 14 15 17 20 22 22 21 22 25 27 28 30 31 31 32 32 32 32 32 32 34 36 38 42 46 50 53 55 56 56 55 54 54 53
3 3 3 1 1 1 2 3 0 2 7 6 5 11 10 6 4 3 9 9 10 11 10 12 12 13 15 15 16 22 24 24 25 24 23 23 23 23 23 24 24 24 24 24 24 24 24 24 25 25 26 25 24 23 22 21 21 21 21 21 20 18 16 15 14 14 16 20 22 20 20 21 23 26 29 30 31 32 33 33 32 32 32 33 34 36 38 41 45 49 52 54 55 55 55 55 54
1 1 1 0 2 3 3 3 2 4 7 4 6 11 10 7 6 4 6 4 8 8 6 9 10 11 12 11 14 19 21 21 21 21 21 21 21 22 22 21 21 21 21 21 22 22 22 23 24 24 25 25 24 23 22 22 22 21 21 20 20 19 17 16 16 14 14 15 18 20 21 21 20 23 26 28 30 32 33 33 33 33 33 34 35 36 37 39 41 45 48 50 52 53 54 55 55
1 1 1 0 2 4 3 2 2 4 7 6 6 8 6 4 3 3 5 6 6 5 6 8 8 9 9 9 11 14 16 17 18 19 21 21 22 22 22 21 21 20 20 21 21 22 22 23 23 22 21 21 21 22 22 22 22 22 21 20 20 20 19 18 17 16 15 14 14 16 20 21 21 21 22 23 26 29 30 31 33 34 34 35 35 36 38 39 41 43 45 47 48 49 51 53 54
4 4 5 4 2 2 2 2 2 3 5 6 6 6 4 1 2 5 7 6 5 6 7 6 6 8 9 9 11 13 15 17 18 20 21 22 23 23 22 22 22 22 23 23 23 24 24 24 23 23 22 21 21 21 22 23 23 23 23 22 21 21 20 19 18 17 17 17 15 15 16 18 20 21 21 21 23 25 26 28 31 33 34 35 36 37 38 39 41 43 45 46 47 49 50 51 52
3 4 5 5 4 2 4 5 3 3 4 4 5 6 2 2 3 6 7 5 6 7 7 6 7 8 8 10 13 14 16 18 18 19 20 21 22 22 22 23 24 25 25 25 26 26 26 26 25 25 25 24 24 23 23 24 24 24 24 23 23 22 20 20 19 19 18 18 18 18 17 17 19 21 22 23 23 24 25 26 29 32 33 34 35 36 38 39 42 43 45 46 47 48 49 50 52
Wind_Direction
262 258 258 258 282 291 321 344 304 141 289 278 298 301 152 159 311 292 316 338 291 350 246 252 216 189 188 245 293 306 295 262 285 293 322 2 354 359 185 184 187 191 192 198 200 199 200 202 202 202 201 198 195 193 189 190 195 196 197 198 200 202 203 202 199 201 202 205 206 208 209 207 208 206 204 206 209 209 209 208 209 205 197 191 182 192 205 210 211 219 224 228 233 231 226 202 171
262 257 260 254 280 296 310 341 296 269 279 285 305 285 33 113 260 309 354 356 340 319 291 245 212 207 217 256 290 294 270 242 254 266 278 289 303 310 236 210 192 190 191 196 201 201 201 202 203 204 203 201 200 197 192 193 198 201 203 203 205 206 209 209 208 209 209 211 208 208 208 206 205 203 201 205 208 204 204 202 204 202 195 196 192 202 215 221 224 232 240 241 238 234 235 225 201
262 256 256 249 276 313 291 296 279 293 291 298 348 83 40 251 274 12 354 343 328 299 288 231 210 220 230 250 263 271 273 257 262 261 272 280 279 277 243 222 202 189 192 196 201 203 202 203 204 205 205 204 203 201 196 197 201 204 206 207 210 212 214 213 212 210 209 211 208 208 207 206 205 204 204 209 212 204 202 201 203 201 197 198 201 213 223 228 230 238 246 240 234 235 241 240 230
263 254 238 217 240 272 242 266 282 288 289 304 332 89 163 279 339 350 328 327 318 297 269 215 219 228 234 250 268 266 268 273 279 269 267 278 269 260 240 224 213 196 194 196 202 205 204 205 204 206 207 206 207 205 202 202 204 207 210 212 214 217 219 217 216 211 207 208 208 207 204 205 205 205 207 213 217 210 207 205 207 209 208 210 216 227 231 231 232 237 240 236 235 239 247 251 251
265 249 216 195 227 269 107 279 269 257 285 345 312 16 137 280 315 311 307 311 311 293 234 215 236 242 243 253 261 256 274 286 294 281 269 283 278 256 239 226 218 207 199 196 202 206 207 207 204 206 208 208 209 209 207 205 207 210 213 215 217 219 220 220 218 211 207 207 207 206 205 206 206 209 212 218 221 217 218 216 217 224 229 231 234 238 237 233 235 239 241 243 246 249 257 264 268
239 208 179 169 176 142 205 251 237 254 290 331 288 311 332 290 301 305 304 304 301 271 221 217 250 286 268 255 249 253 280 291 292 292 288 288 282 262 246 229 219 214 206 199 202 206 209 208 206 206 208 209 210 211 210 208 209 211 213 216 217 217 217 216 212 208 206 206 208 209 209 209 211 216 218 223 227 226 227 226 230 241 246 243 243 245 244 242 242 244 246 249 253 259 266 271 274
184 151 139 152 124 171 252 265 265 276 291 210 273 298 310 311 308 304 306 310 294 237 220 218 242 284 272 266 263 270 288 291 288 291 291 289 283 270 254 233 220 217 213 206 204 206 210 209 208 209 209 210 212 213 211 210 211 212 215 216 215 212 210 205 203 203 205 207 210 210 211 214 220 226 226 230 235 233 233 236 244 253 253 248 247 248 248 248 248 250 253 256 261 265 269 272 273
171 156 158 198 151 207 259 267 267 277 233 221 267 273 288 303 305 296 299 302 281 263 231 224 224 262 273 265 267 287 303 302 295 294 292 289 282 270 257 236 222 219 218 213 209 208 210 210 210 212 212 213 214 214 212 212 213 214 216 213 205 199 199 198 199 202 205 207 210 214 218 225 230 233 235 239 243 241 242 248 255 258 255 250 249 249 249 250 250 253 258 261 263 266 268 270 270
164 163 162 216 218 232 254 265 267 258 242 249 261 259 272 289 290 281 279 272 268 268 241 229 211 227 298 266 266 293 307 311 306 302 296 288 277 264 256 239 225 223 223 220 216 212 211 211 212 214 215 216 217 216 215 214 214 216 214 207 199 194 197 198 199 205 209 211 217 224 230 233 235 237 243 248 251 251 252 253 257 257 254 251 249 248 247 248 249 252 255 256 259 261 263 262 258
159 160 151 193 218 254 255 260 263 230 237 245 267 269 273 279 273 262 264 272 267 256 250 232 215 234 279 287 276 298 314 321 320 311 303 289 276 260 250 239 230 226 226 226 223 218 215 214 214 215 217 218 220 219 218 217 215 216 211 206 204 200 201 202 203 209 215 218 225 231 234 236 239 242 248 254 256 254 253 251 251 253 252 249 246 242 242 246 248 249 248 248 245 244 243 240 239
169 144 154 203 230 268 278 281 277 273 271 268 274 270 272 266 252 244 242 267 266 250 250 222 214 235 256 280 276 298 317 323 329 327 318 299 280 260 246 237 233 228 226 227 227 224 221 219 217 217 218 219 221 222 222 221 219 218 214 210 211 210 210 211 212 215 220 223 227 231 235 239 243 245 247 252 253 248 245 244 245 247 246 242 237 233 234 237 235 231 228 223 218 217 221 228 233
201 145 187 249 251 275 299 298 285 296 294 279 265 219 248 218 210 247 233 263 264 248 241 218 223 236 243 263 270 297 309 313 333 337 328 313 288 263 245 237 234 229 225 225 226 226 224 222 221 220 219 220 222 224 224 223 223 223 221 218 217 219 220 222 222 222 226 229 230 233 239 244 244 244 245 244 244 241 238 239 238 237 235 230 224 217 215 214 210 207 205 204 205 208 213 221 229
219 154 217 257 275 284 289 288 285 300 294 271 160 168 220 194 209 285 249 258 248 248 253 227 235 258 265 270 279 291 299 302 319 323 318 312 295 270 251 239 234 229 227 224 224 225 225 224 223 222 221 221 222 223 224 224 225 225 225 224 224 227 228 231 233 230 231 234 234 236 241 244 243 244 248 245 239 239 235 234 231 225 219 213 207 202 200 200 200 200 200 202 202 208 212 219 230
208 180 238 284 134 265 235 273 279 282 293 74 147 222 234 213 233 263 251 276 255 236 276 251 233 246 265 268 281 283 286 301 305 307 304 300 293 278 259 243 237 235 234 228 225 224 224 225 224 224 223 222 223 224 224 223 224 226 227 228 230 232 233 236 240 237 235 235 234 234 237 241 244 246 249 245 237 236 231 225 219 212 207 203 201 198 198 197 198 199 199 201 203 207 211 218 228
191 173 226 244 193 234 213 252 289 264 286 31 223 222 239 253 250 241 257 290 283 261 279 269 224 228 252 248 277 283 287 297 299 299 298 292 286 277 264 250 242 240 239 234 227 225 224 225 225 225 224 224 224 225 225 224 224 225 228 231 234 235 236 238 241 242 240 238 237 235 237 240 243 243 243 241 236 233 224 215 209 204 202 201 200 198 198 197 197 199 200 202 203 204 208 214 220
182 170 207 248 220 231 204 207 213 249 257 177 223 215 251 260 232 245 280 284 281 280 276 253 227 242 257 254 272 284 289 293 292 293 292 288 281 273 267 257 249 244 241 237 232 229 226 226 226 226 226 225 226 226 226 225 225 225 227 230 233 236 238 238 239 241 242 240 240 238 239 239 238 237 237 236 232 226 218 211 208 205 203 202 200 199 199 199 199 199 200 201 202 205 209 214 218
176 180 242 246 229 223 193 191 194 266 283 217 208 208 244 260 236 268 291 279 273 280 275 260 250 256 263 266 275 283 287 289 288 288 286 284 279 271 266 259 255 250 246 241 237 234 230 229 228 228 227 227 228 228 228 226 225 226 228 230 232 234 237 238 238 240 241 240 239 238 238 236 233 232 231 229 224 218 213 211 210 208 206 205 203 203 203 203 203 201 200 199 201 205 209 214 220
181 208 244 244 250 228 195 209 204 261 292 261 212 206 237 266 278 286 290 271 262 273 274 267 264 266 269 272 278 282 286 286 285 284 282 280 277 273 268 263 258 255 253 247 243 239 236 234 231 231 231 230 229 229 230 229 227 226 228 230 231 233 235 237 237 237 238 236 236 235 235 233 230 228 226 223 219 213 210 210 210 209 208 208 208 209 210 210 209 206 204 205 208 211 217 222 227
202 233 239 245 248 210 190 222 214 217 270 286 273 242 244 267 281 282 278 270 263 272 275 266 260 270 275 277 279 281 283 282 281 280 278 276 275 274 271 267 262 258 256 253 251 247 242 239 236 235 234 233 231 231 231 231 230 228 228 229 229 231 234 236 236 236 236 234 233 232 232 230 227 225 224 220 215 211 209 209 209 209 208 210 212 213 215 215 213 212 212 216 221 226 234 242 246
214 220 243 250 242 234 223 234 231 236 266 286 279 272 263 266 268 259 264 273 268 261 269 264 254 269 279 283 285 281 279 280 280 279 278 276 273 272 270 267 265 262 260 258 255 251 247 244 242 240 238 236 234 233 233 232 231 230 230 230 230 231 233 234 235 235 235 234 232 231 231 229 225 223 222 217 212 210 209 209 210 209 208 210 213 215 217 218 216 216 218 222 229 237 248 257 264
185 203 245 258 224 253 237 237 245 248 262 270 273 283 275 270 262 243 243 271 266 252 262 267 265 277 283 283 285 284 280 279 279 279 279 278 276 273 270 268 267 265 261 257 254 252 251 248 246 243 241 238 236 235 234 234 233 232 232 232 231 232 233 234 234 234 234 233 230 230 230 227 224 224 221 216 212 211 210 209 211 210 209 211 213 215 217 217 217 218 221 226 233 242 253 262 270
203 220 246 259 217 258 252 243 255 257 260 263 262 270 274 274 260 239 228 245 260 262 271 276 278 284 287 283 283 284 282 280 280 280 280 281 280 277 274 272 268 265 260 256 254 254 251 249 248 246 244 241 239 238 237 235 235 234 234 234 234 233 235 235 234 234 234 232 230 229 229 225 224 223 221 218 215 214 213 211 212 212 211 212 212 214 215 215 218 219 223 228 234 242 250 257 262
239 236 239 251 239 249 261 252 262 265 256 254 254 270 276 268 265 248 223 238 260 272 279 283 285 286 287 286 283 283 282 281 281 280 281 281 281 279 277 274 270 266 262 258 255 253 250 247 247 247 246 245 243 241 238 237 236 236 236 236 236 236 237 236 236 235 234 233 231 230 228 226 225 224 222 219 218 217 216 214 213 212 211 212 212 214 215 217 218 220 224 229 234 239 243 249 253
241 257 239 251 251 251 261 263 264 268 261 260 266 278 276 258 265 261 230 248 267 278 283 284 288 288 285 284 283 283 283 282 282 281 281 278 278 279 277 274 269 265 260 255 251 248 248 245 245 246 247 247 246 244 242 240 239 237 238 238 237 237 238 238 238 237 236 235 233 231 229 228 227 226 225 222 220 219 218 216 214 212 212 213 214 216 218 218 219 221 225 228 232 235 239 243 247
224 251 258 255 261 260 268 273 268 270 266 268 270 270 269 262 267 269 253 262 273 279 285 285 285 284 281 281 281 282 283 283 284 283 280 276 275 275 273 271 268 263 258 253 249 246 245 243 241 243 245 247 247 246 245 244 242 240 239 240 239 238 239 239 239 239 237 235 234 232 230 229 229 228 227 224 223 222 221 218 215 214 214 215 216 217 218 218 219 222 224 227 229 232 235 239 242
213 244 270 272 275 277 279 279 271 269 266 262 257 259 266 269 275 273 263 267 275 277 282 283 279 278 278 281 284 284 284 285 285 283 280 277 272 267 267 270 269 267 264 259 254 249 245 242 240 240 242 245 245 246 246 246 245 244 242 242 240 240 239 239 240 240 238 236 235 234 232 231 231 231 229 227 225 224 223 221 218 216 217 217 218 219 219 220 221 222 224 226 228 231 233 237 239
259 273 288 280 279 281 277 274 266 262 264 249 234 256 266 268 272 272 267 269 276 273 276 281 278 278 281 284 288 288 287 287 288 286 282 276 270 268 270 274 275 275 272 266 263 258 250 245 241 239 240 242 243 244 245 246 247 246 245 244 242 242 241 240 240 240 239 238 237 235 234 233 233 232 231 230 228 226 225 223 221 219 219 220 220 221 221 221 223 224 225 226 228 231 234 236 238
318 321 296 281 279 281 267 260 259 248 258 243 224 253 267 262 227 256 263 269 273 273 276 279 278 279 284 287 289 289 288 288 289 285 281 278 275 277 279 280 282 283 278 274 272 267 259 253 247 242 240 240 242 242 243 244 245 246 246 246 244 244 243 242 241 241 241 240 238 236 235 235 234 233 233 232 230 228 227 225 223 222 222 223 222 222 222 223 224 225 226 226 229 231 234 236 237
298 307 291 288 287 285 265 248 252 230 237 227 200 246 263 240 228 250 261 268 274 275 276 278 278 280 284 286 286 286 286 287 286 283 281 281 279 280 281 283 285 284 281 277 273 268 265 260 253 247 242 241 241 241 242 242 243 245 246 246 246 245 244 244 244 243 242 242 241 238 236 236 235 234 234 233 232 230 229 227 226 224 224 224 224 223 223 224 225 226 227 228 230 232 235 236 237
279 271 280 296 289 285 262 225 241 224 221 183 171 245 265 239 242 255 262 267 274 271 268 274 275 278 282 283 283 283 286 286 286 286 285 284 282 281 282 283 284 283 280 275 269 267 267 264 258 251 244 241 240 241 242 241 242 243 244 245 246 245 245 245 245 245 244 243 243 240 238 237 236 235 235 235 233 232 230 229 228 226 226 225 225 225 225 225 226 227 228 229 231 233 235 235 236
278 286 234 273 270 277 207 147 172 235 214 172 181 257 266 264 269 270 271 268 271 268 265 269 270 274 279 281 283 284 287 288 287 288 287 286 285 285 285 285 284 282 278 273 268 266 265 263 259 254 247 243 240 240 241 242 242 243 244 244 245 245 245 245 246 246 245 244 244 242 240 239 238 237 236 236 235 234 232 230 228 228 228 227 226 226 226 227 227 229 230 231 233 234 234 234 235
246 268 254 222 231 265 281 234 206 236 222 166 190 258 259 257 271 276 285 282 271 266 273 277 274 273 276 279 281 285 290 292 291 291 291 291 291 291 290 289 287 283 279 274 269 265 262 260 257 254 249 245 242 240 241 242 243 244 244 245 245 246 246 246 245 246 247 246 244 243 241 240 239 238 238 237 236 235 234 232 231 230 229 228 228 228 227 228 228 229 230 231 233 234 235 235 235
216 233 260 248 244 266 288 287 241 220 197 183 212 251 267 255 271 276 283 288 282 274 280 282 280 278 278 278 280 285 289 293 294 295 297 300 300 298 296 293 289 281 276 272 265 260 258 257 254 252 250 248 246 243 242 242 242 243 244 244 245 245 246 246 245 246 246 246 244 243 242 241 240 240 239 237 237 237 236 234 233 232 231 229 229 229 229 229 229 230 231 232 233 234 235 236 236
230 216 243 253 254 265 279 289 290 175 184 218 226 240 257 261 276 281 282 285 284 280 280 280 281 281 279 280 282 284 286 292 296 298 301 306 307 307 304 298 292 282 274 268 262 256 254 254 253 251 250 249 248 246 245 244 244 244 244 244 244 244 245 245 245 245 245 245 245 244 243 242 241 241 240 238 238 238 237 235 234 233 232 231 231 230 230 230 230 230 232 233 233 233 234 234 235
252 242 256 270 248 246 256 265 299 303 243 248 246 247 255 258 262 272 278 281 280 279 277 277 277 278 280 281 283 285 286 293 298 300 307 314 317 315 308 302 297 288 280 271 264 258 255 254 253 252 250 248 247 247 247 246 245 245 245 244 243 243 243 244 244 244 244 245 245 245 245 243 242 241 240 239 238 238 237 236 235 233 232 232 232 231 230 230 230 231 231 232 233 233 233 233 234
279 294 282 287 274 256 258 261 270 292 280 271 268 268 273 274 264 262 275 282 282 277 275 273 272 276 281 280 281 289 299 299 300 308 317 321 320 316 309 306 300 291 285 277 270 264 261 259 258 256 254 252 248 247 246 244 243 243 244 244 243 243 242 243 243 244 244 244 245 245 245 244 243 242 241 240 239 238 238 236 235 233 232 232 233 233 233 232 231 232 232 232 233 232 233 233 232
320 296 274 274 278 273 269 273 273 255 278 272 267 275 282 283 279 270 272 277 275 271 272 276 277 279 278 278 285 303 308 304 314 324 333 335 336 346 341 334 326 314 300 285 278 271 266 263 261 260 258 256 253 250 249 247 245 244 243 243 243 244 244 244 244 244 244 245 245 244 245 244 243 242 241 240 239 238 238 237 236 234 233 233 233 234 235 234 233 233 233 233 234 233 233 233 231
277 267 275 271 267 274 271 276 284 273 271 273 269 279 284 285 282 272 264 263 265 270 276 282 283 279 275 281 306 330 315 320 339 1 29 43 41 42 36 31 30 27 23 354 322 295 278 267 263 263 261 258 257 257 256 254 252 250 249 248 247 246 246 245 245 245 245 245 245 245 245 244 243 242 241 240 239 238 238 237 237 235 234 234 234 234 234 234 234 234 234 234 234 234 234 234 232
263 259 269 270 268 283 276 263 277 311 264 285 294 290 289 282 274 270 265 259 261 268 272 273 271 270 278 320 349 328 334 351 30 57 65 64 61 59 55 52 49 47 45 39 30 8 328 288 271 267 266 265 264 264 262 262 261 259 257 255 254 252 251 250 248 248 247 247 247 246 245 245 244 243 241 240 239 239 239 239 238 237 236 235 235 235 234 233 233 233 233 234 234 233 233 233 233
247 245 257 269 269 279 274 245 269 3 267 287 303 293 284 273 262 264 273 256 256 263 260 261 265 272 302 345 335 332 2 43 69 70 69 68 65 61 58 57 55 53 50 46 42 36 25 357 301 274 267 267 267 267 267 267 265 264 262 260 258 257 255 255 253 252 250 249 248 248 247 246 245 244 243 242 240 240 240 240 240 239 238 237 237 236 235 234 234 233 233 233 233 233 234 234 233
237 230 245 265 264 262 267 279 328 310 271 284 311 296 284 272 233 84 323 225 252 262 254 257 288 16 19 358 357 16 60 77 75 69 65 63 63 64 64 63 59 55 52 48 44 41 39 33 15 320 281 270 269 270 271 271 268 265 263 261 259 257 255 254 253 252 250 249 248 248 248 247 246 245 244 243 242 241 241 240 240 240 239 238 237 237 237 237 236 236 235 234 235 235 236 236 235
257 218 222 249 264 269 273 289 322 309 271 52 344 314 303 177 108 1 335 305 273 263 249 272 36 47 43 47 61 74 80 80 75 64 59 62 68 72 70 65 59 55 51 47 42 40 39 37 35 26 351 300 280 274 273 274 273 271 267 264 261 260 260 259 258 257 257 255 253 252 251 250 249 248 247 245 244 242 241 241 241 240 240 239 238 238 238 238 237 237 237 237 238 237 236 236 236
272 213 213 242 259 267 273 290 300 292 289 45 8 307 289 261 247 290 296 270 263 260 252 33 58 56 54 70 81 84 80 73 68 61 60 67 72 73 70 62 56 52 49 44 40 37 35 33 33 33 29 12 329 295 281 277 277 276 275 273 271 269 269 268 268 267 266 264 261 259 257 256 254 251 249 247 245 244 242 242 242 241 241 240 240 239 238 239 238 238 239 239 239 238 237 236 237
267 115 200 239 252 257 256 272 259 274 316 300 193 228 272 284 249 237 248 244 258 271 300 20 75 78 85 89 83 79 72 62 59 59 60 64 65 66 66 61 54 50 45 39 36 33 31 29 27 27 29 30 21 348 311 293 284 281 279 278 275 274 274 273 274 273 271 269 267 265 262 260 257 255 252 250 247 245 243 242 242 242 242 241 241 240 240 240 240 239 239 238 239 238 238 238 239
284 70 54 149 231 257 219 246 256 276 316 280 186 183 259 285 241 197 246 248 264 298 7 38 69 79 86 85 76 67 60 57 58 57 56 55 53 56 60 60 54 47 41 36 33 30 27 26 24 22 21 21 23 19 358 329 305 293 286 281 277 276 275 273 273 274 273 272 270 269 266 264 262 259 257 255 252 248 246 244 242 242 242 242 242 242 241 242 241 241 240 238 238 238 238 239 239
55 104 84 82 95 71 174 253 277 271 281 260 172 174 254 291 239 167 254 270 292 350 50 69 80 78 60 62 63 56 55 62 60 55 56 56 54 57 61 62 57 49 42 37 33 29 25 23 21 21 19 15 12 10 6 357 335 313 299 291 285 282 278 275 274 274 273 272 272 272 270 268 266 264 262 260 257 254 251 247 244 243 243 243 243 243 243 243 243 242 242 241 241 240 240 239 239
79 135 76 94 171 116 162 251 304 269 270 230 173 184 220 283 315 135 241 316 318 2 58 77 87 76 57 53 54 53 60 67 64 59 60 60 59 61 61 61 60 54 48 41 34 30 26 21 19 18 19 17 14 8 360 353 344 330 315 304 297 290 284 280 278 277 275 274 275 275 274 273 271 270 267 264 261 259 255 251 247 245 244 243 244 243 243 243 244 244 244 243 242 241 241 241 240
157 207 313 289 244 212 206 178 151 252 266 195 160 190 212 238 252 62 338 311 256 257 22 53 78 69 55 53 55 58 63 63 61 60 59 57 56 55 55 55 55 52 49 44 38 33 27 22 19 18 18 18 16 13 6 355 343 333 323 312 304 296 288 284 282 280 278 277 277 276 276 276 276 275 273 270 267 264 260 256 251 248 246 244 244 243 243 243 243 244 244 244 243 242 242 242 241
197 209 256 276 282 267 242 221 206 246 262 58 35 342 230 243 261 281 283 303 28 34 24 57 77 68 56 54 55 59 61 58 57 56 55 53 51 49 48 48 47 46 44 42 39 34 29 25 22 21 21 19 16 14 11 6 354 338 325 315 307 298 291 287 285 283 281 280 279 277 277 278 278 278 278 277 275 272 268 263 258 254 250 248 246 245 244 244 244 244 244 244 244 243 243 243 242
187 200 200 233 277 283 274 274 268 268 296 61 46 336 252 262 266 255 261 317 47 58 70 75 74 69 62 58 56 59 61 59 55 53 53 52 50 47 47 45 44 43 41 40 37 34 32 29 25 23 23 20 17 13 12 11 7 356 339 324 316 307 298 291 287 285 284 284 283 281 280 280 279 280 281 281 280 278 274 270 266 261 256 253 250 248 246 245 245 245 245 245 245 245 244 244 244
189 195 187 245 264 269 277 277 271 281 294 156 146 181 243 256 57 241 296 54 60 69 76 76 75 74 69 61 55 56 58 59 57 55 54 53 52 50 49 47 44 42 40 38 37 37 35 32 28 24 21 19 16 13 12 12 12 9 359 345 333 322 315 306 297 290 286 285 287 286 284 284 283 282 283 283 283 281 277 274 271 267 263 259 254 251 249 247 246 246 246 246 246 246 245 245 245
209 97 131 256 226 188 251 261 260 292 297 254 194 220 250 255 297 266 115 77 72 72 69 68 65 62 59 53 48 51 55 58 58 57 55 54 53 52 50 50 48 44 41 38 37 36 34 33 32 27 23 19 14 12 11 11 12 11 9 4 354 342 332 322 311 302 294 289 288 288 288 288 287 286 286 285 284 282 280 276 273 271 268 264 260 256 253 250 248 247 247 247 246 246 245 245 245
137 166 200 218 159 157 231 257 265 320 279 264 229 251 262 266 281 264 118 98 84 71 60 58 54 50 55 49 43 51 56 58 59 58 57 55 53 52 50 48 46 45 44 42 39 37 35 36 35 32 28 23 17 13 10 8 7 7 7 7 2 356 346 334 320 307 300 294 289 288 289 289 288 288 287 287 286 284 281 278 275 273 270 267 265 261 258 254 251 249 248 248 247 247 246 245 245
133 190 206 146 65 119 218 250 207 210 252 263 256 264 270 266 267 108 109 101 86 79 70 66 58 53 58 50 45 54 59 60 61 59 56 55 52 50 47 44 42 41 40 40 38 37 35 33 29 26 25 25 24 20 16 12 9 6 5 4 3 359 351 344 331 313 301 295 293 290 287 286 287 288 287 287 286 284 281 279 277 274 272 269 267 264 261 258 255 253 251 250 249 248 247 246 245
199 267 250 92 249 230 189 203 216 223 243 250 242 259 268 258 241 165 126 87 73 82 79 69 60 56 59 55 54 58 61 62 62 60 57 55 51 48 45 42 38 35 31 30 28 26 23 22 20 19 19 20 21 19 18 16 14 13 10 6 3 359 353 349 343 330 313 302 301 300 295 291 287 287 288 288 287 285 283 281 279 277 274 272 269 266 263 260 257 255 253 253 252 250 249 248 246
99 299 282 207 257 253 211 181 196 223 247 253 235 243 253 254 244 165 108 70 64 72 68 63 59 61 64 62 60 57 58 58 55 54 52 48 46 44 42 40 37 34 29 25 21 18 17 17 18 19 17 15 13 13 13 13 14 15 13 9 5 0 356 354 349 341 329 318 312 309 305 301 294 288 287 287 288 287 286 284 282 279 277 274 271 269 266 263 260 257 255 254 253 252 251 250 248
184 209 222 206 201 263 266 232 190 211 245 248 236 236 233 17 57 104 98 76 70 71 74 73 64 66 62 56 56 52 49 47 43 41 39 36 36 34 34 33 30 27 25 23 21 19 17 17 16 15 14 13 12 11 11 10 10 10 10 8 5 1 358 356 353 349 342 334 325 317 309 301 295 291 286 283 283 284 285 285 284 281 279 276 274 271 268 266 263 261 258 256 255 254 252 251 250
197 210 213 217 203 190 244 237 195 205 239 235 245 248 220 43 40 99 111 105 102 98 96 87 65 60 57 51 51 49 46 44 39 36 33 30 28 25 22 20 17 16 17 16 15 13 12 12 11 11 11 12 12 12 11 10 8 6 5 4 3 0 359 357 354 351 349 344 338 331 321 308 299 294 289 284 282 281 281 283 283 282 280 278 275 273 270 268 265 263 262 260 258 256 255 253 251